Location: Sulphur Springs (historical)
(38.1246°N, 122.1900°W)
Time: 09:34:29
(UTC+00:00)

Nadezhda 4 Rocket - Pass Details

Date: 29 October 2020
Orbit: 950 x 991 km, 82.9° (Epoch: 23 November)

Event Time Altitude Azimuth Distance (km) Brightness Sun altitude
Rises 12:01:30 0° 180° (S) 3,607 6.9 -30.1°
Reaches altitude 10° 12:03:58 10° 178° (S) 2,665 6.2 -29.6°
Maximum altitude 12:10:02 76° 95° (E) 984 4.0 -28.5°
Drops below altitude 10° 12:16:10 10° 10° (N) 2,693 6.4 -27.3°
Sets 12:18:41 0° 9° (N) 3,647 7.2 -26.8°
